FW1340 Weather Reports


time (UTC)temp
F
wind
direction
speed
knots
gust
knots
rain 1hr
in
rain 24hr
in
rain mn
in
humidity
%
barometer
mb
20240418170041 66 48 0.0 0.0 0.00 0.00 0.00 77 1014.5
20240418164537 65 17 0.0 0.0 0.00 0.00 0.00 79 1014.6
20240418163033 64 53 0.0 0.0 0.00 0.00 0.00 80 1014.6
20240418161531 63 360 0.0 0.0 0.00 0.00 0.00 83 1014.8
20240418160022 62 42 0.0 0.0 0.00 0.00 0.00 86 1014.8
20240418154523 60 360 0.0 0.0 0.00 0.00 0.00 88 1014.7
20240418153014 58 355 0.0 0.0 0.00 0.00 0.00 92 1014.7
20240418151513 57 70 0.0 0.0 0.00 0.00 0.00 93 1014.7
20240418150004 56 65 0.0 0.0 0.00 0.00 0.00 95 1014.6
20240418144501 55 57 0.0 0.0 0.00 0.00 0.00 95 1014.7
20240418143059 54 48 0.0 0.0 0.00 0.00 0.00 96 1014.7
20240418141608 53 62 0.0 0.0 0.00 0.00 0.00 96 1014.4
20240418140050 52 32 0.0 0.0 0.00 0.00 0.00 95 1014.3
20240418134555 51 355 0.0 0.0 0.00 0.00 0.00 94 1014.3
20240418133051 52 5 0.0 0.0 0.00 0.00 0.00 95 1014.1
20240418131543 52 5 0.0 0.0 0.00 0.00 0.00 94 1014.0
20240418130046 51 5 0.0 0.0 0.00 0.00 0.00 94 1014.0
20240418124542 52 5 0.0 0.0 0.00 0.00 0.00 94 1014.0
20240418123044 52 5 0.0 0.0 0.00 0.00 0.00 94 1013.9
20240418121542 52 124 0.0 0.0 0.00 0.00 0.00 94 1013.7
20240418120040 52 124 0.0 0.0 0.00 0.00 0.00 94 1013.8
20240418114538 52 124 0.0 0.0 0.00 0.00 0.00 94 1014.0
20240418113044 52 124 0.0 0.0 0.00 0.00 0.00 93 1014.0
20240418111535 52 124 0.0 0.0 0.00 0.00 0.00 93 1014.0
20240418110033 52 68 0.0 0.0 0.00 0.00 0.00 93 1014.0
20240418104532 53 68 0.0 0.0 0.00 0.00 0.00 92 1014.0
20240418103037 53 62 0.0 0.0 0.00 0.00 0.00 92 1014.0
20240418101528 54 62 0.0 0.0 0.00 0.00 0.00 92 1013.9
20240418100032 54 105 0.0 0.0 0.00 0.00 0.00 92 1014.0
20240418094545 54 105 0.0 0.0 0.00 0.00 0.00 92 1013.9
20240418093032 54 105 0.0 0.0 0.00 0.00 0.00 91 1014.0
20240418091521 55 105 0.0 0.0 0.00 0.00 0.00 91 1014.1
20240418090026 55 95 0.0 0.0 0.00 0.00 0.00 92 1014.1
20240418084518 55 61 0.0 0.0 0.00 0.00 0.00 92 1014.3
20240418083019 55 121 0.0 0.0 0.00 0.00 0.00 91 1014.3
20240418081530 55 121 0.0 0.0 0.00 0.00 0.00 89 1014.3
20240418080015 56 161 0.0 0.0 0.00 0.00 0.00 89 1014.3
20240418074513 57 142 0.0 0.0 0.00 0.00 0.00 89 1014.3
20240418073006 57 13 0.0 0.0 0.00 0.00 0.00 87 1014.4
20240418071506 58 13 0.0 0.0 0.00 0.00 0.00 87 1014.4
20240418070005 58 210 0.0 0.0 0.00 0.00 0.00 87 1014.4
20240418064502 59 210 0.0 0.0 0.00 0.00 0.00 87 1014.4
20240418063004 59 210 0.0 0.0 0.00 0.00 0.00 85 1014.5
20240418061505 60 210 0.0 0.0 0.00 0.00 0.00 85 1014.5
20240418060100 60 210 0.0 0.0 0.00 0.00 0.00 84 1014.5
20240418054603 60 210 0.0 0.0 0.00 0.00 0.00 82 1014.5
20240418053113 62 210 0.0 0.0 0.00 0.00 0.00 82 1014.5
20240418051614 63 279 0.0 0.0 0.00 0.00 0.00 79 1014.4
20240418050117 64 279 0.0 0.0 0.00 0.00 0.00 79 1014.4
20240418044603 64 279 0.0 0.0 0.00 0.00 0.00 78 1014.4
20240418043058 65 279 0.0 0.0 0.00 0.00 0.00 76 1014.2
20240418041608 66 279 0.0 0.0 0.00 0.00 0.00 75 1014.2
20240418040108 66 279 0.0 0.0 0.00 0.00 0.00 73 1014.0
20240418034555 68 279 0.0 0.0 0.00 0.00 0.00 72 1013.9
20240418033102 69 279 0.0 0.0 0.00 0.00 0.00 68 1013.7
20240418031559 71 279 0.0 0.0 0.00 0.00 0.00 67 1013.7
20240418030058 72 279 0.0 0.0 0.00 0.00 0.00 63 1013.7
20240418024554 73 279 0.0 0.0 0.00 0.00 0.00 57 1013.7
20240418023053 74 264 0.0 0.0 0.00 0.00 0.00 57 1013.7
20240418021552 75 246 0.0 0.0 0.00 0.00 0.00 54 1013.7
20240418020050 76 239 0.0 0.0 0.00 0.00 0.00 50 1013.9
20240418014550 78 292 0.0 0.0 0.00 0.00 0.00 50 1013.9
20240418013049 78 241 0.0 0.0 0.00 0.00 0.00 49 1014.1
20240418011547 78 335 0.0 0.0 0.00 0.00 0.00 50 1014.2
20240418010049 78 312 0.0 0.0 0.00 0.00 0.00 51 1014.2
20240418004546 78 311 0.0 0.0 0.00 0.00 0.00 49 1014.4
20240418003043 78 302 0.0 0.0 0.00 0.00 0.00 50 1014.5
20240418001549 77 309 0.0 0.0 0.00 0.00 0.00 50 1014.5
20240418000039 78 252 0.0 0.0 0.00 0.00 0.00 52 1014.7
20240417234538 79 327 0.0 0.0 0.00 0.00 0.00 48 1014.8
20240417233037 80 242 0.0 0.0 0.00 0.00 0.00 47 1014.9
20240417231536 80 242 0.0 0.0 0.00 0.00 0.00 46 1015.0
20240417230037 79 342 0.0 0.0 0.00 0.00 0.00 49 1015.0
20240417224534 78 309 0.0 0.0 0.00 0.00 0.00 51 1015.3
20240417223026 77 306 0.0 0.0 0.00 0.00 0.00 53 1015.4
20240417221524 77 329 0.0 0.0 0.00 0.00 0.00 53 1015.6
20240417220027 76 350 0.0 0.0 0.00 0.00 0.00 55 1015.7
20240417214517 76 235 0.0 0.0 0.00 0.00 0.00 56 1016.1
20240417213019 76 250 0.0 0.0 0.00 0.00 0.00 57 1016.2
20240417211513 74 355 0.0 0.0 0.00 0.00 0.00 59 1016.2
20240417210010 74 355 0.0 0.0 0.00 0.00 0.00 59 1016.4
20240417204510 74 321 0.0 0.0 0.00 0.00 0.00 61 1016.6
20240417203005 73 15 0.0 0.0 0.00 0.00 0.00 62 1016.8
20240417201600 73 316 0.0 0.0 0.00 0.00 0.00 62 1017.0
20240417201502 73 341 0.0 0.0 0.00 0.00 0.00 62 1016.9
20240417200116 71 15 0.0 0.0 0.00 0.00 0.00 63 1017.2
20240417194559 70 334 0.0 0.0 0.00 0.00 0.00 66 1017.3
20240417193048 69 327 0.0 0.0 0.00 0.00 0.00 68 1017.6
20240417191546 69 55 0.0 0.0 0.00 0.00 0.00 68 1017.8
20240417190045 68 57 0.0 0.0 0.00 0.00 0.00 71 1018.0
20240417184549 68 300 0.0 0.0 0.00 0.00 0.00 72 1018.2
20240417183039 67 33 0.0 0.0 0.00 0.00 0.00 72 1018.4
20240417181534 67 41 0.0 0.0 0.00 0.00 0.00 77 1018.5
20240417180029 65 40 0.0 0.0 0.00 0.00 0.00 80 1018.5
20240417174526 64 33 0.0 0.0 0.00 0.00 0.00 82 1018.5
20240417173022 63 355 0.0 0.0 0.00 0.00 0.00 83 1018.5
20240417171520 62 342 0.0 0.0 0.00 0.00 0.00 86 1018.5